Date,TemperatureHighF,TemperatureAvgF,TemperatureLowF,DewpointHighF,DewpointAvgF,DewpointLowF,HumidityHigh,HumidityAvg,HumidityLow,PressureMaxIn,PressureMinIn,WindSpeedMaxMPH,WindSpeedAvgMPH,GustSpeedMaxMPH,PrecipitationSumIn
2013-1-1,64.9,50.3,40.5,42.0,32.0,19.5,78,53,31,29.74,29.59,6,0,6,0.00
2013-1-2,70.0,53.1,41.7,32.7,24.6,16.8,56,34,23,29.62,29.53,8,1,8,0.00
2013-1-3,75.2,52.6,39.4,40.9,27.7,20.8,56,40,20,29.68,29.53,5,1,5,0.00
2013-1-4,72.3,52.4,40.6,33.0,22.7,16.7,40,32,19,29.79,29.65,6,1,6,7.54
2013-1-5,69.1,51.0,38.8,38.7,28.0,16.7,77,43,25,29.79,29.65,4,1,4,0.00
2013-1-6,61.2,49.7,42.4,54.2,42.7,34.4,98,79,50,29.71,29.50,4,3,4,0.13
2013-1-7,71.2,52.0,41.7,43.7,37.7,28.5,98,64,23,29.59,29.47,8,4,8,0.00
2013-1-8,73.6,54.2,41.5,47.5,40.0,30.6,93,62,33,29.62,29.50,5,1,5,0.00
2013-1-9,73.4,56.2,46.8,51.4,44.5,35.5,93,68,33,29.62,29.50,2,1,2,0.00
2013-1-10,60.4,51.5,44.6,50.5,37.8,21.5,98,63,37,29.59,29.41,12,3,12,0.00
2013-1-11,60.1,45.4,33.6,32.2,24.6,17.7,70,46,26,29.68,29.53,9,4,9,0.00
2013-1-12,60.4,44.3,32.9,29.6,23.9,18.0,61,46,26,29.65,29.56,6,1,6,0.00
2013-1-13,61.3,44.6,34.2,28.9,24.2,20.3,63,47,26,29.65,29.53,0,0,0,0.00
2013-1-14,61.9,45.8,35.1,21.0,12.6,7.2,54,27,16,29.82,29.59,5,1,5,0.00
2013-1-15,64.6,47.0,34.3,27.8,18.5,6.6,51,33,24,29.94,29.79,5,2,5,0.00
2013-1-16,73.0,53.4,38.1,36.9,28.8,21.6,55,40,24,29.85,29.59,3,3,3,0.00
2013-1-17,86.2,61.8,46.6,35.8,25.8,18.5,47,27,13,29.68,29.53,3,3,3,7.67
2013-1-18,85.6,62.6,48.9,36.8,24.2,16.4,30,24,14,29.65,29.53,3,3,3,0.00
2013-1-19,84.6,64.5,51.4,36.8,24.5,17.2,29,22,14,29.68,29.53,3,3,3,0.00
2013-1-20,86.0,68.4,50.7,34.8,23.8,15.3,27,19,13,29.65,29.47,3,2,3,7.67
2013-1-21,84.7,63.9,50.5,36.5,21.9,13.5,28,21,13,29.59,29.47,5,2,5,7.67
2013-1-22,86.4,63.3,48.2,34.7,21.4,11.6,26,21,13,29.59,29.47,2,2,2,7.67
2013-1-23,78.8,64.5,56.5,44.4,29.5,20.6,58,28,21,29.65,29.47,4,2,4,7.67
2013-1-24,73.4,60.2,54.0,57.0,51.3,43.0,93,74,45,29.68,29.59,6,1,6,7.67
2013-1-25,67.1,60.6,57.6,62.2,58.9,54.5,98,94,81,29.62,29.41,2,1,2,7.67
2013-1-26,70.3,59.8,54.5,64.2,58.3,54.0,98,95,69,29.50,29.35,4,1,4,8.50
2013-1-27,63.0,55.7,51.4,55.0,50.3,42.1,98,84,50,29.56,29.47,8,1,8,7.67
2013-2-19,46.6,45.8,45.0,45.9,44.6,43.1,98,96,92,29.26,29.17,0,0,0,1.49
2013-2-20,62.2,49.7,38.7,44.9,35.0,28.1,97,60,34,29.50,29.17,10,2,10,0.29
2013-2-21,66.6,50.1,41.4,45.8,39.8,36.1,90,70,39,29.59,29.47,4,4,4,0.00
2013-2-22,70.3,51.9,37.8,46.2,38.3,33.5,93,64,32,29.71,29.59,4,4,4,0.00
2013-2-23,70.7,52.5,39.4,44.3,38.4,31.5,93,63,32,29.68,29.44,4,4,4,0.00
2013-2-24,70.9,49.5,40.6,55.2,40.6,21.9,98,81,17,29.59,29.47,4,4,4,0.00
2013-3-3,78.8,64.3,51.4,49.4,45.8,33.8,92,55,22,29.59,29.47,1,1,1,0.00
2013-3-4,75.0,59.5,49.8,51.2,48.6,44.4,92,70,40,29.59,29.50,1,1,1,0.00
2013-3-5,65.1,55.6,51.1,52.7,49.9,46.8,92,82,60,29.65,29.53,1,1,1,0.00
2013-3-6,70.3,58.0,47.3,48.5,43.1,38.8,91,61,35,29.65,29.50,1,1,1,0.00
2013-3-10,84.9,65.2,49.5,51.2,37.4,26.6,78,37,23,29.74,29.56,9,2,9,1.74
2013-3-11,81.9,60.9,44.8,48.9,37.7,27.8,88,47,21,29.68,29.53,7,1,7,1.74
2013-3-12,88.0,63.6,45.0,55.6,45.8,38.6,98,61,19,29.59,29.47,6,1,6,1.74
2013-3-13,94.1,63.7,48.6,57.4,49.8,46.0,98,68,24,29.62,29.47,57,1,57,1.74
2013-3-14,93.4,66.1,50.2,63.5,50.8,40.6,98,68,20,29.59,29.47,6,1,6,1.74
2013-3-15,84.0,61.4,51.3,57.5,51.5,46.4,98,75,33,29.56,29.41,6,1,6,1.74
2013-3-16,73.0,58.2,49.5,53.8,49.7,46.6,98,77,42,29.50,29.38,6,1,6,1.74
2013-3-17,75.9,60.2,52.9,53.1,50.3,47.3,93,73,41,29.50,29.41,7,2,7,1.74
2013-3-18,72.1,58.5,51.1,52.1,49.4,45.2,93,74,43,29.59,29.50,8,1,8,0.00
2013-3-19,75.9,59.4,49.3,52.8,50.1,47.7,98,75,41,29.62,29.53,172,1,172,0.00
2013-3-20,78.1,60.8,49.1,60.4,50.4,45.7,98,73,36,29.59,29.47,5,1,5,0.00
2013-3-21,77.7,60.8,49.5,57.8,49.6,44.0,98,72,33,29.47,29.29,6,1,6,0.00
2013-3-22,74.1,59.3,49.3,57.2,49.9,44.5,98,75,42,29.44,29.29,6,1,6,0.00
2013-3-23,76.6,59.8,47.5,53.6,49.3,45.7,97,72,39,29.53,29.41,6,1,6,0.00
2013-3-24,83.1,62.8,50.2,56.2,50.4,43.4,98,71,28,29.50,29.35,7,1,7,0.00
2013-3-25,84.0,62.2,49.6,60.7,51.1,43.0,98,73,31,29.50,29.38,6,1,6,0.00
2013-3-26,74.8,60.1,52.0,55.3,51.1,46.3,95,76,39,29.50,29.38,6,1,6,0.00
2013-3-27,72.5,59.5,51.6,53.3,49.9,46.4,95,73,43,29.56,29.41,8,1,8,9.41
2013-3-28,82.8,63.4,53.4,54.1,50.9,47.3,94,68,33,29.59,29.47,8,1,8,9.41
2013-3-29,78.3,62.2,55.4,59.0,53.7,50.1,96,77,43,29.62,29.53,6,1,6,0.00
2013-3-30,79.9,63.1,52.3,59.4,52.0,45.0,98,71,41,29.65,29.53,7,1,7,0.00
2013-3-31,76.8,60.6,50.7,56.4,52.4,49.5,98,77,41,29.65,29.56,8,2,8,0.00
2013-4-1,74.1,60.5,52.3,53.9,50.2,44.4,96,73,39,29.71,29.59,13,2,13,0.00
2013-4-2,77.2,61.1,51.3,57.5,50.7,45.2,98,73,36,29.62,29.50,9,1,9,0.00
2013-4-3,84.6,63.2,51.6,57.9,53.0,49.8,98,74,32,29.59,29.47,7,1,7,9.41
2013-4-4,82.6,64.6,54.9,57.2,52.5,46.3,95,70,32,29.62,29.47,7,1,7,0.00
2013-4-5,75.2,61.0,54.9,59.0,54.3,49.7,98,81,45,29.59,29.47,8,1,8,0.00
2013-4-6,76.8,62.5,54.0,55.5,52.1,47.4,94,71,41,29.59,29.44,8,1,8,0.00
2013-4-7,76.5,60.4,34.2,59.1,50.9,0.0,98,74,41,29.47,29.29,8,1,8,0.00
2013-4-8,70.5,59.5,50.0,55.4,46.1,38.8,96,65,34,29.32,29.17,13,2,13,0.00
2013-4-9,76.8,59.6,43.9,49.5,38.8,27.3,93,53,21,29.50,29.32,11,2,11,0.00
2013-4-10,83.1,64.2,45.9,46.8,37.0,30.3,72,40,19,29.62,29.47,12,1,12,0.00
2013-4-11,79.9,61.0,49.1,51.2,42.3,29.9,85,53,27,29.50,29.29,11,2,11,0.00
2013-4-12,81.0,63.2,55.4,54.3,50.4,47.7,88,66,35,29.38,29.26,8,1,8,0.00
2013-4-13,63.5,58.4,54.9,55.1,52.5,48.8,87,81,72,29.44,29.35,4,1,4,0.00
2013-4-14,67.8,57.4,52.7,54.4,49.7,47.2,92,76,52,29.38,29.32,2,2,2,0.00
2013-4-15,68.4,58.5,53.4,55.2,49.7,45.7,88,74,49,29.44,29.35,10,2,10,9.41
2013-4-16,69.3,57.5,48.7,46.4,41.7,34.7,77,58,33,29.50,29.35,9,2,9,9.41
2013-4-17,76.1,59.3,45.3,39.4,30.7,19.9,75,39,18,29.62,29.50,10,2,10,9.41
2013-4-18,82.2,66.0,49.8,28.6,24.0,18.5,36,21,14,29.71,29.59,11,2,11,0.00
2013-4-19,89.4,68.5,49.6,35.8,25.9,18.9,36,22,11,29.68,29.47,10,1,10,0.00
2013-4-20,91.6,67.8,50.0,51.5,42.0,25.4,79,45,17,29.50,29.35,7,1,7,0.00
2013-4-21,84.9,65.7,55.2,58.7,51.7,41.2,95,67,23,29.53,29.44,8,1,8,0.00
2013-4-22,76.8,62.8,54.9,54.9,51.0,47.6,88,68,40,29.50,29.41,8,1,8,0.00
2013-4-23,79.0,63.7,56.1,52.4,49.6,46.3,83,63,35,29.50,29.35,0,0,0,0.00
2013-4-24,61.2,58.2,56.8,56.3,53.2,51.3,92,83,76,29.47,29.41,0,0,0,0.00
2013-4-27,85.3,72.2,58.6,55.5,51.8,47.1,83,51,32,29.62,29.47,3,1,3,4.65
2013-4-28,82.9,66.9,57.7,59.8,53.9,50.5,92,66,38,29.53,29.35,1,1,1,0.00
2013-4-29,64.4,64.0,58.6,55.9,53.6,51.5,81,69,63,29.41,29.26,1,1,1,4.65
2013-4-30,73.6,65.8,57.9,53.8,52.1,50.2,82,64,46,29.38,29.29,1,1,1,4.65
2013-5-1,77.7,66.4,58.1,55.2,53.6,51.5,90,67,43,29.59,29.38,1,1,1,0.00
2013-5-2,99.0,76.8,56.8,56.5,46.6,36.2,96,44,13,29.62,29.44,1,1,1,4.65
2013-5-3,82.0,80.7,75.2,38.0,37.2,37.0,26,21,20,29.53,29.29,1,1,1,0.00
2013-5-4,76.8,71.7,58.6,54.8,49.0,38.0,86,48,26,29.35,29.23,1,1,1,0.00
2013-5-5,75.9,67.5,57.6,54.8,51.0,46.8,90,57,42,29.47,29.32,1,1,1,0.00
2013-5-6,72.5,62.1,57.0,61.9,55.2,48.8,98,80,47,29.50,29.38,1,1,1,0.00
2013-5-7,75.6,64.2,56.1,58.0,52.6,44.4,95,70,41,29.59,29.47,1,1,1,0.66
2013-5-8,75.6,63.3,53.8,59.5,51.0,41.3,93,67,37,29.62,29.53,1,1,1,0.00
2013-5-9,77.5,63.9,52.2,57.9,51.9,47.1,95,69,40,29.59,29.53,1,1,1,0.00
2013-5-10,85.1,67.7,55.8,58.7,54.6,51.1,93,67,35,29.59,29.47,1,1,1,0.00
2013-5-11,95.0,72.1,57.9,62.6,57.6,53.3,97,68,26,29.56,29.41,1,1,1,0.00
2013-5-12,102.7,79.4,61.3,64.4,54.2,42.5,96,53,14,29.53,29.35,1,1,1,0.00
2013-5-13,104.4,82.7,63.9,60.2,48.8,38.8,76,38,14,29.47,29.35,1,1,1,0.00
2013-5-14,96.3,79.4,58.1,58.8,50.6,45.7,82,41,22,29.50,29.41,1,1,1,0.00
2013-5-15,89.6,79.4,59.4,54.2,49.8,46.9,79,40,23,29.53,29.41,1,1,1,0.00
2013-5-16,83.8,68.3,60.1,55.3,53.3,50.0,79,61,34,29.47,29.35,1,1,1,0.00
2013-5-17,83.1,69.2,60.1,58.2,53.9,48.8,86,61,34,29.50,29.38,1,1,1,0.00
2013-5-18,85.1,68.6,56.1,60.1,53.3,46.4,94,63,31,29.53,29.44,1,1,1,0.00
2013-5-19,86.4,69.2,56.8,58.0,54.0,49.8,93,64,32,29.47,29.35,1,1,1,0.00
2013-5-20,95.5,70.5,55.9,60.3,55.7,49.9,94,66,23,29.47,29.35,1,1,1,0.00
2013-5-21,90.3,70.9,61.0,61.2,57.3,52.2,94,67,30,29.44,29.29,1,1,1,0.00
2013-5-22,83.1,69.2,61.5,56.4,53.7,47.9,79,61,33,29.35,29.26,1,1,1,0.00
2013-5-23,82.6,71.1,56.7,54.4,50.2,46.7,85,52,31,29.44,29.29,1,1,1,0.00
2013-5-24,81.9,73.9,55.8,53.0,48.8,46.5,79,44,32,29.50,29.41,1,1,1,0.00
2013-5-25,85.1,79.7,73.0,51.6,48.2,46.5,41,33,31,29.53,29.47,1,1,1,6.09
2013-5-26,81.7,75.8,57.2,53.4,49.8,47.6,82,43,32,29.56,29.47,1,1,1,0.00
2013-5-27,84.7,68.0,53.1,58.5,52.9,48.7,97,63,32,29.50,29.35,6,1,6,0.00
2013-5-28,87.3,70.7,59.9,57.1,54.1,49.0,87,60,29,29.38,29.23,6,1,6,0.00
2013-5-29,93.7,72.4,59.5,59.7,56.0,50.4,90,62,27,29.29,29.17,1,1,1,0.00
2013-5-30,87.8,69.9,56.5,60.5,56.2,52.0,97,67,33,29.35,29.23,1,1,1,0.00
2013-5-31,93.0,72.1,61.3,58.2,56.3,52.8,85,63,28,29.41,29.26,1,1,802,0.00
2013-6-1,92.3,72.2,63.0,61.5,58.3,54.4,87,66,32,29.32,29.20,1,1,802,0.00
2013-6-2,78.3,66.0,61.9,61.1,57.9,52.6,90,76,46,29.29,29.20,1,1,802,0.09
2013-6-3,84.9,68.3,60.6,61.1,55.8,51.5,93,68,35,29.35,29.23,1,1,802,0.00
2013-6-4,87.8,69.8,61.0,57.7,54.8,51.3,84,63,31,29.44,29.35,1,1,802,0.00
2013-6-5,86.7,69.8,58.5,57.5,54.9,51.0,87,63,32,29.47,29.35,1,1,802,0.00
2013-6-6,88.2,69.1,58.3,59.6,55.7,51.2,91,67,31,29.44,29.29,1,1,802,0.00
2013-6-7,88.2,69.0,60.6,59.4,56.0,52.2,88,67,32,29.38,29.23,1,1,802,0.00
2013-6-8,81.0,66.4,60.4,58.8,56.0,51.5,88,71,40,29.38,29.26,1,1,802,0.00
2013-6-9,83.8,67.4,60.1,61.0,55.6,50.7,89,69,38,29.41,29.29,1,1,802,0.00
2013-6-10,90.0,71.5,60.3,56.8,53.4,48.9,85,58,28,29.44,29.35,1,1,802,0.00
2013-6-11,94.1,71.2,57.6,62.3,57.0,52.7,98,67,28,29.38,29.32,1,1,802,0.00
2013-6-12,86.4,68.0,61.5,60.5,57.9,53.3,92,73,37,29.47,29.35,1,1,802,0.00
2013-6-13,90.5,71.5,60.8,59.4,56.4,51.4,84,63,29,29.44,29.32,58,17,802,0.00
2013-6-14,85.3,68.7,60.1,59.0,55.2,50.3,85,66,33,29.38,29.29,58,58,58,10.83
2013-6-15,86.4,69.5,59.7,56.7,53.2,47.9,84,61,30,29.44,29.35,58,58,58,0.00
2013-6-16,90.1,71.9,59.5,57.8,53.7,50.6,86,58,28,29.50,29.35,58,58,58,0.00
2013-6-17,94.3,71.8,59.5,59.3,56.3,51.6,91,64,28,29.44,29.29,58,58,58,0.00
2013-6-18,87.8,70.9,60.3,60.5,57.1,52.8,92,67,33,29.35,29.26,58,58,58,0.00
2013-6-19,91.8,73.5,61.7,59.6,54.4,44.9,90,57,21,29.32,29.23,58,58,58,0.00
2013-6-20,94.3,74.5,60.6,60.2,54.0,40.3,92,57,19,29.32,29.23,58,58,58,0.00
2013-6-21,90.7,72.8,59.4,60.2,55.3,47.6,92,60,30,29.35,29.26,58,58,58,0.00
2013-6-22,92.3,71.8,59.7,59.6,55.6,49.6,92,62,27,29.35,29.23,58,58,58,0.00
2013-6-23,86.4,72.8,61.7,57.2,54.9,51.6,83,57,34,29.35,29.23,58,58,58,0.00
2013-6-24,80.1,70.3,60.8,60.3,56.7,53.6,95,68,40,29.38,29.29,58,40,58,0.00
2013-6-25,62.6,62.6,62.6,59.6,59.6,59.6,90,90,90,29.44,29.29,3,3,3,0.00
2013-6-26,98.2,81.0,62.6,62.5,58.6,56.0,90,56,26,29.47,29.35,3,3,3,0.00
2013-6-27,98.2,98.2,98.2,57.5,57.5,57.5,26,26,26,29.47,29.44,3,3,3,0.00
2013-7-19,69.3,69.3,69.3,62.8,62.8,62.8,80,80,80,29.41,29.29,3,3,3,0.00
2013-7-20,69.3,69.3,69.3,62.8,62.8,62.8,80,80,80,29.38,29.26,3,3,3,0.00
2013-7-21,69.3,69.3,69.3,62.8,62.8,62.8,80,80,80,29.44,29.26,3,3,3,0.00
2013-7-22,69.3,69.3,69.3,62.8,62.8,62.8,80,80,80,29.47,29.38,3,3,3,0.00
2013-7-23,69.3,69.3,69.3,62.8,62.8,62.8,80,80,80,29.50,29.41,3,3,3,0.00
2013-7-24,69.3,69.3,69.3,62.8,62.8,62.8,80,80,80,29.47,29.38,3,3,3,0.00
2013-7-25,69.3,69.3,69.3,62.8,62.8,62.8,80,80,80,29.53,29.41,3,3,3,0.00
2013-7-26,69.3,69.3,69.3,62.8,62.8,62.8,80,80,80,29.56,29.47,3,3,3,0.00
2013-7-27,69.3,69.3,69.3,62.8,62.8,62.8,80,80,80,29.50,29.32,3,3,3,0.00
2013-7-28,69.3,69.3,69.3,62.8,62.8,62.8,80,80,80,29.44,29.35,3,3,3,0.00
2013-7-29,69.3,69.3,69.3,62.8,62.8,62.8,80,80,80,29.53,29.38,3,3,3,0.00
2013-7-30,69.3,69.3,69.3,62.8,62.8,62.8,80,80,80,29.62,29.50,3,3,3,0.00
2013-7-31,69.3,69.3,69.3,62.8,62.8,62.8,80,80,80,29.59,29.47,3,3,3,0.00
2013-8-1,69.3,69.3,69.3,62.8,62.8,62.8,80,80,80,29.53,29.38,3,3,3,0.00
2013-8-2,69.3,69.3,69.3,62.8,62.8,62.8,80,80,80,29.47,29.38,3,3,3,0.00
2013-8-3,69.3,69.3,69.3,62.8,62.8,62.8,80,80,80,29.50,29.41,3,3,3,0.00
2013-8-4,69.3,69.3,69.3,62.8,62.8,62.8,80,80,80,29.50,29.38,3,3,3,0.00
2013-8-5,69.3,69.3,69.3,62.8,62.8,62.8,80,80,80,29.50,29.41,3,3,3,0.00
2013-8-6,69.3,69.3,69.3,62.8,62.8,62.8,80,80,80,29.53,29.44,3,3,3,0.00
2013-8-7,69.3,69.3,69.3,62.8,62.8,62.8,80,80,80,29.59,29.44,3,3,3,0.00
2013-8-8,69.3,69.3,69.3,62.8,62.8,62.8,80,80,80,29.50,29.35,3,3,3,0.00
2013-8-9,69.3,69.3,69.3,62.8,62.8,62.8,80,80,80,29.47,29.38,3,3,3,0.00
2013-8-10,69.3,69.3,69.3,62.8,62.8,62.8,80,80,80,29.50,29.41,3,3,3,0.00
2013-8-11,69.3,69.3,69.3,62.8,62.8,62.8,80,80,80,29.47,29.44,3,3,3,0.00
2013-8-12,0.0,0.0,0.0,0.0,0.0,0.0,0,0,100,29.44,29.35,3,3,3,0.00
2013-8-13,0.0,0.0,0.0,0.0,0.0,0.0,0,0,100,29.47,29.35,3,3,3,0.00
2013-8-14,0.0,0.0,0.0,0.0,0.0,0.0,0,0,100,29.41,29.29,3,3,3,0.00
2013-8-15,0.0,0.0,0.0,0.0,0.0,0.0,0,0,100,29.44,29.35,3,3,3,0.00
2013-8-16,103.5,44.9,0.0,62.8,30.9,0.0,91,26,17,29.47,29.35,3,3,3,5.40
2013-8-17,105.1,76.7,61.3,68.2,58.6,44.6,98,64,17,29.44,29.29,3,3,3,0.00
2013-8-18,91.8,73.1,63.0,63.4,59.2,54.2,92,67,31,29.38,29.29,3,3,3,0.00
2013-8-19,95.7,72.7,63.9,63.6,59.6,53.0,89,68,28,29.47,29.35,3,3,3,0.00
2013-8-20,103.1,77.1,64.0,62.9,58.3,45.0,90,60,17,29.41,29.29,3,3,3,0.00
2013-8-21,105.8,78.9,60.6,63.5,54.8,47.6,93,52,16,29.41,29.29,3,3,3,10.16
2013-8-22,107.4,90.2,61.7,63.5,49.7,40.5,89,36,11,29.41,29.26,3,3,3,0.00
2013-8-23,106.0,102.8,97.2,51.4,43.6,40.7,19,14,11,29.35,29.20,3,3,3,0.00
2013-8-24,102.4,92.6,82.9,58.2,49.9,45.1,37,25,17,29.38,29.23,3,3,3,0.00
2013-8-25,103.8,90.9,63.0,62.7,52.8,45.8,93,31,16,29.41,29.32,3,3,3,0.00
2013-8-26,99.7,99.7,99.7,48.7,48.7,48.7,18,18,18,29.41,29.29,3,3,3,0.00
2013-8-27,99.7,99.7,99.7,48.7,48.7,48.7,18,18,18,29.32,29.23,3,3,3,0.00
2013-8-28,108.5,101.0,99.7,50.8,49.0,48.7,18,18,15,29.35,29.23,3,3,3,5.40
2013-8-29,68.9,68.9,68.9,57.1,57.1,57.1,66,66,66,29.44,29.35,0,0,0,5.40
2013-8-30,100.0,81.0,68.9,63.1,59.4,57.1,66,52,30,29.47,29.35,0,0,0,5.40
2013-8-31,100.0,100.0,100.0,63.1,63.1,63.1,30,30,30,29.44,29.35,0,0,0,5.40
2013-9-1,102.0,99.9,99.3,63.8,62.8,61.3,30,30,27,29.44,29.32,0,0,0,5.40
2013-9-2,103.1,100.0,95.9,63.9,61.2,58.2,35,28,25,29.41,29.29,0,0,0,5.40
2013-9-3,100.9,100.9,100.9,59.8,59.8,59.8,26,26,26,29.41,29.29,0,0,0,5.40
2013-9-4,100.9,100.9,100.9,59.8,59.8,59.8,26,26,26,29.38,29.29,0,0,0,5.40
2013-9-5,100.9,100.9,100.9,59.8,59.8,59.8,26,26,26,29.38,29.29,0,0,0,5.40
2013-9-6,100.9,100.9,100.9,59.8,59.8,59.8,26,26,26,29.35,29.23,0,0,0,5.40
2013-9-7,100.9,100.9,100.9,59.8,59.8,59.8,26,26,26,29.35,29.26,0,0,0,5.40
2013-9-8,100.9,100.9,100.9,59.8,59.8,59.8,26,26,26,29.35,29.23,0,0,0,5.40
2013-9-9,100.9,100.9,100.9,59.8,59.8,59.8,26,26,26,29.32,29.20,0,0,0,5.40
2013-9-10,100.9,100.9,100.9,59.8,59.8,59.8,26,26,26,29.44,29.29,0,0,0,5.40
2013-9-11,100.9,100.9,100.9,59.8,59.8,59.8,26,26,26,29.47,29.35,0,0,0,5.40
2013-9-12,100.9,100.9,100.9,59.8,59.8,59.8,26,26,26,29.41,29.23,0,0,0,5.40
2013-9-13,100.9,100.9,100.9,59.8,59.8,59.8,26,26,26,29.32,29.12,0,0,0,5.40
2013-9-14,100.9,100.9,100.9,59.8,59.8,59.8,26,26,26,29.20,29.09,0,0,0,5.40
2013-9-15,100.9,100.9,100.9,59.8,59.8,59.8,26,26,26,29.26,29.14,0,0,0,5.40
2013-9-16,100.9,100.9,100.9,59.8,59.8,59.8,26,26,26,29.32,29.17,0,0,0,5.40
2013-9-17,100.9,100.9,100.9,59.8,59.8,59.8,26,26,26,29.32,29.20,0,0,0,5.40
2013-9-18,100.9,100.9,100.9,59.8,59.8,59.8,26,26,26,29.32,29.23,0,0,0,5.40
2013-9-19,100.9,100.9,100.9,59.8,59.8,59.8,26,26,26,29.35,29.23,0,0,0,5.40
2013-9-20,100.9,100.9,100.9,59.8,59.8,59.8,26,26,26,29.38,29.26,0,0,0,5.40
2013-9-21,100.9,100.9,100.9,59.8,59.8,59.8,26,26,26,29.38,29.35,0,0,0,0.00
2013-9-22,0.0,0.0,0.0,0.0,0.0,0.0,0,0,100,29.32,29.32,0,0,0,0.00